Location: *
(49.1939°N, 0.8136°E)
Time: 02:53:35
(UTC+00:00)

Daily predictions for brighter satellites

Satellite Brightness Start Highest point End
(mag) Time Altitude Azimuth Time Altitude Azimuth Time Altitude Azimuth
ATLAS 2AS CENTAUR R/B 4.3 02:50:49 29° ESE 02:50:49 29° ESE 02:54:08 10° ESE
CZ-4C R/B 4.4 03:17:27 21° NNE 03:17:27 21° NNE 03:20:47 10° NE
USA 234 4.2 03:08:54 10° NE 03:12:57 41° NE 03:12:57 41° NE
Cosmos 2360 Rocket 3.9 03:21:28 30° ENE 03:21:28 30° ENE 03:25:14 10° ESE
SL-16 R/B 4.4 03:34:46 15° SE 03:34:46 15° SE 03:35:45 10° SE
ATLAS CENTAUR R/B 4.0 03:35:39 22° ENE 03:35:39 22° ENE 03:37:35 10° NE
Cosmos 2322 Rocket 4.1 03:38:34 22° SE 03:38:34 22° SE 03:40:26 10° SE
Cosmos 2100 Rocket 4.5 03:51:04 18° SSE 03:55:35 56° E 04:01:35 10° NNE
NOSS 3-4 (A) 3.7 03:58:45 82° S 03:58:45 82° S 04:06:03 10° SE
NOSS 3-4 (C) 3.7 03:58:49 82° S 03:58:49 82° S 04:06:09 10° SE
Cosmos 2219 Rocket 3.8 04:04:57 21° N 04:07:28 29° NE 04:12:24 10° ESE
NOSS 3-3 (A) 4.3 04:09:46 56° N 04:09:46 56° N 04:15:37 10° NE
NOSS 3-3 (C) 4.3 04:09:51 57° N 04:09:51 57° N 04:15:43 10° NE
Cosmos 1802 Rocket 4.4 04:13:16 10° S 04:19:37 65° E 04:25:56 10° NNE
Cosmos 2173 Rocket 4.0 04:13:32 10° S 04:19:45 78° E 04:25:54 10° NNE
Cosmos 2333 Rocket 3.4 04:21:31 22° N 04:24:37 39° NE 04:29:59 10° ESE
H-2A R/B 4.1 04:23:53 10° NNE 04:26:04 28° NNE 04:26:04 28° NNE
Cosmos 1048 Rocket 3.9 04:31:52 75° N 04:32:20 87° ENE 04:37:41 10° SSE
Lacrosse 5 2.9 04:33:48 35° N 04:33:48 35° N 04:38:05 10° ENE
STARLINK-59 4.4 04:35:00 49° ENE 04:35:00 49° ENE 04:38:07 10° ENE
Cosmos 1515 Rocket 3.9 04:35:09 60° NE 04:35:32 63° ENE 04:39:50 10° SSE
STARLINK-57 4.3 04:36:36 51° ENE 04:36:36 51° ENE 04:39:47 10° ENE
RESURS DK-1 4.5 04:35:33 18° NNE 04:37:03 22° NE 04:40:20 10° E
ATLAS 2AS CENTAUR R/B 3.1 04:38:20 44° SW 04:38:20 44° SW 04:44:27 10° S
STARLINK-28 4.2 04:39:48 55° ENE 04:39:48 55° ENE 04:43:06 10° ENE
Lacrosse 5 rocket 2.3 04:40:13 39° ESE 04:40:13 39° ESE 04:42:35 10° ESE
IDEFIX/ARIANE 42P 4.3 04:35:17 10° N 04:36:50 19° N 04:36:50 19° N
STARLINK-75 4.1 04:40:59 55° NE 04:40:59 55° NE 04:44:19 10° ENE
Okean O Rocket 4.2 04:38:32 10° NE 04:41:50 21° E 04:45:08 10° SE
STARLINK-53 4.0 04:42:43 59° NE 04:42:43 59° NE 04:46:11 10° ENE
STARLINK-54 4.0 04:42:59 59° NE 04:42:59 59° NE 04:46:26 10° ENE
SKYMED 2 4.2 04:38:30 10° SSE 04:42:44 54° ENE 04:45:18 22° N
Cosmos 2228 Rocket 4.0 04:38:56 13° N 04:42:51 50° ENE 04:47:18 10° SSE
Cosmos 2082 Rocket 3.9 04:44:58 19° NNW 04:44:58 19° NNW 04:47:27 10° N
Cosmos 1484 Rocket 4.1 04:40:06 10° NNE 04:43:56 41° E 04:47:44 10° S
Cosmos 2061 Rocket 3.9 04:38:25 10° S 04:44:38 85° E 04:50:52 10° N
Cosmos 1933 3.6 04:44:40 65° ENE 04:44:50 66° ENE 04:48:49 10° SSE
STARLINK-37 3.9 04:46:29 62° NE 04:46:29 62° NE 04:50:02 10° ENE
STARLINK-55 3.8 04:47:38 65° NE 04:47:38 65° NE 04:51:17 10° ENE
Cosmos 2298 Rocket 3.9 04:48:01 62° WSW 04:48:46 72° WNW 04:54:06 10° NNE
STARLINK-34 3.8 04:49:24 66° NNE 04:49:24 66° NNE 04:53:05 10° ENE
STARLINK-81 3.7 04:50:47 70° NNE 04:50:47 70° NNE 04:54:35 10° ENE
STARLINK-43 4.3 04:51:23 40° NNE 04:51:23 40° NNE 04:54:22 10° ENE
STARLINK-24 3.7 04:51:58 68° NNE 04:51:58 68° NNE 04:55:48 10° ENE
STARLINK-77 3.6 04:53:58 72° NNE 04:53:58 72° NNE 04:57:54 10° ENE
Cosmos 468 4.5 04:54:05 57° WSW 04:54:10 57° WSW 04:59:19 10° S
STARLINK-80 4.2 04:54:40 43° NNE 04:54:40 43° NNE 04:57:55 10° ENE
STARLINK-25 3.6 04:55:33 72° N 04:55:33 72° N 04:59:35 10° ENE
Cosmos 1408 Rocket 3.5 04:55:55 67° NNW 04:55:55 67° NNW 04:59:54 10° N
Cosmos 1459 Rocket 3.9 04:49:31 10° SSW 04:55:41 62° WNW 05:01:59 10° N
CZ-2C R/B 2.2 04:51:58 10° N 04:56:44 63° WNW 04:56:51 62° W
STARLINK-71 3.6 04:57:23 69° N 04:57:23 69° N 05:01:25 10° ENE
USA 234 3.8 04:51:48 10° ENE 04:57:58 46° N 05:00:18 34° NW
STARLINK-79 3.5 04:58:46 71° NNW 04:58:46 71° NNW 05:02:53 10° ENE
SL-4 R/B 4.2 05:01:32 18° SSW 05:01:32 18° SSW 05:03:45 10° S
STARLINK-78 3.5 05:00:23 70° NNW 05:00:25 70° NNW 05:04:35 10° ENE
Cosmos 1782 4.3 04:57:20 10° N 05:01:03 36° ENE 05:04:43 10° SE
MSX 4.1 04:56:37 10° N 05:02:03 44° WNW 05:02:29 44° WNW
Cosmos 494 Rocket 3.9 04:59:46 27° NNW 05:02:44 87° ENE 05:07:57 10° SSE
STARLINK-49 3.5 05:03:33 67° NW 05:03:43 68° NNW 05:07:52 10° ENE
Cosmos 2360 Rocket 2.3 05:03:18 45° WNW 05:04:21 51° WSW 05:09:48 10° S
Cosmos 1500 Rocket 3.9 05:00:07 10° S 05:04:32 66° E 05:08:56 10° NNE
Cosmos 2237 4.3 05:03:59 43° WNW 05:05:18 53° WSW 05:10:48 10° S
STARLINK-27 3.5 05:05:10 65° NW 05:05:24 68° NNW 05:09:33 10° ENE
CZ-4C R/B 4.1 05:02:38 18° NNW 05:06:00 26° NNE 05:12:02 10° ENE
STARLINK-52 3.4 05:06:17 62° NNE 05:06:17 62° NNE 05:09:46 10° E
STARLINK-74 3.5 05:06:45 64° NW 05:07:03 67° NNW 05:11:12 10° ENE
STARLINK-39 3.5 05:08:20 62° NW 05:08:43 66° NNW 05:12:51 10° ENE
STARLINK 3.6 05:09:57 59° NW 05:10:24 65° NNW 05:14:33 10° ENE
Meteor 1-26 Rocket 4.2 05:05:01 10° N 05:10:45 86° ENE 05:16:17 10° SSE
STARLINK-42 3.6 05:11:04 57° NW 05:11:33 63° NNW 05:15:41 10° ENE
Cosmos 2237 Rocket 3.6 05:06:39 10° NNW 05:11:51 35° NE 05:17:00 10° ESE
Transit 2A Rocket 4.4 05:10:45 46° NW 05:12:02 82° SW 05:16:35 10° SSE
ATLAS CENTAUR R/B 2.1 05:11:53 42° NW 05:12:08 42° NW 05:16:37 10° NNE
Cosmos 2016 Rocket 3.9 05:06:56 10° SSW 05:13:10 65° WNW 05:19:33 10° N
SL-16 R/B 4.1 05:16:43 13° SW 05:16:43 13° SW 05:17:35 10° SW
STARLINK-21 3.6 05:13:07 55° WNW 05:13:42 63° NNW 05:17:51 10° ENE
STARLINK-61 3.7 05:14:22 50° NW 05:14:51 53° N 05:18:50 10° ENE
Cosmos 1725 Rocket 3.9 05:08:57 10° SSW 05:15:14 77° W 05:21:36 10° N
STARLINK-45 3.7 05:15:01 52° NW 05:15:40 60° NNW 05:19:46 10° ENE
Cosmos 1400 Rocket 2.6 05:14:04 30° NNW 05:16:01 79° W 05:20:00 10° S
COSMOS 2428 2.8 05:12:16 17° NNW 05:16:45 78° ENE 05:22:29 10° SSE
STARLINK-29 3.1 05:17:40 63° NNW 05:18:04 74° NNE 05:21:34 10° ESE
Cosmos 2322 Rocket 3.8 05:20:28 17° SW 05:20:28 17° SW 05:22:27 10° SSW
STARLINK-76 3.7 05:17:57 49° WNW 05:18:45 61° NNW 05:22:53 10° ENE
Cosmos 1833 4.1 05:13:40 10° SSW 05:19:17 78° WNW 05:24:58 10° NNE
FALCON 9 DEB 3.0 05:19:07 66° NW 05:19:31 80° NNE 05:22:58 10° ESE
STARLINK 3.7 05:19:33 48° WNW 05:20:25 60° NNW 05:24:32 10° ENE
STARLINK-32 3.7 05:21:07 46° WNW 05:22:03 60° NNW 05:26:10 10° ENE
Cosmos 1269 Rocket 3.9 05:19:49 18° NNW 05:23:46 76° WSW 05:29:02 10° SSE
STARLINK-40 3.7 05:22:45 44° WNW 05:23:46 59° NNW 05:27:52 10° ENE
STARLINK-26 3.8 05:22:57 44° WNW 05:23:53 56° NNW 05:27:55 10° ENE
USA 116 3.5 05:21:51 10° SSE 05:25:20 89° WSW 05:29:01 12° NNW
STARLINK-44 3.7 05:24:19 43° WNW 05:25:24 58° NNW 05:29:31 10° ENE
Gbstr 26 Del rocket 2.8 05:25:38 42° NW 05:26:36 58° N 05:30:18 10° E
STARLINK-36 3.8 05:25:57 41° WNW 05:27:06 58° NNW 05:31:12 10° ENE
FENGYUN 3A 4.0 05:23:18 10° NNE 05:28:44 70° ESE 05:34:06 10° S
COSMO-SKYMED 1 2.7 05:26:29 10° S 05:30:43 51° W 05:33:48 18° NNW
Cosmos 372 Rocket 4.4 05:31:05 27° W 05:32:59 37° WNW 05:37:44 10° N
Cosmos 1125 Rocket 3.5 05:27:54 10° SW 05:33:07 62° WNW 05:38:21 10° NNE
ALOS 2.3 05:28:40 10° NNE 05:33:22 81° ESE 05:38:03 10° SSW
STARLINK-35 3.8 05:32:20 35° WNW 05:33:46 56° NNW 05:37:51 10° ENE
BREEZE-M DEB (TANK) 4.4 05:29:44 22° WNW 05:35:03 36° SW 05:38:59 10° SSE
STARLINK-51 3.8 05:33:54 34° WNW 05:35:25 55° N 05:39:31 10° ENE
NOSS 0 Rocket 4.2 05:29:36 10° NNW 05:35:52 69° ENE 05:42:05 10° SE
STARLINK-30 3.8 05:35:31 33° WNW 05:37:06 55° N 05:41:11 10° ENE
TIMED 4.4 05:33:52 16° NNW 05:37:23 86° WSW 05:41:45 10° SSE
Cosmos 2251 Rocket 4.4 05:32:40 10° NNW 05:37:48 48° ENE 05:42:51 10° SE
Cosmos 1980 4.4 05:32:59 10° NNW 05:38:33 53° NE 05:44:05 10° SE
STARLINK-33 3.9 05:37:06 32° WNW 05:38:45 54° N 05:42:50 10° ENE
PSLV R/B 4.0 05:36:22 10° N 05:40:09 48° WNW 05:44:00 10° SW
STARLINK-50 3.9 05:38:43 31° WNW 05:40:26 54° N 05:44:31 10° ENE
Cosmos 1606 3.4 05:42:52 29° WNW 05:43:33 31° W 05:46:57 10° SSW
STARLINK-56 3.9 05:41:56 29° WNW 05:43:47 53° N 05:47:51 10° ENE
STARLINK-48 4.0 05:42:58 27° NW 05:44:41 47° N 05:48:28 10° E
Cosmos 1825 3.5 05:46:21 22° NW 05:46:21 22° NW 05:48:21 10° NNW
Starlink (trailer) 3.9 05:43:28 28° WNW 05:45:24 53° N 05:49:29 10° ENE
Tsikada Rocket 4.3 05:39:47 10° NNW 05:45:48 45° W 05:51:43 10° SSW
STARLINK-38 3.9 05:45:06 27° WNW 05:47:06 52° N 05:51:10 10° ENE
Helios 1A Rocket 2.9 05:44:02 10° NNE 05:48:09 89° ESE 05:52:12 10° SSW
STARLINK-65 3.9 05:46:44 26° WNW 05:48:48 52° N 05:52:52 10° ENE
Abrixas rocket 1.9 05:50:22 30° W 05:51:40 78° S 05:54:42 10° E
Cosmos 2219 Rocket 2.2 05:46:42 12° NW 05:51:49 61° WSW 05:57:24 10° SSE
CZ-4B R/B 4.4 05:50:49 10° NNW 05:52:06 16° NNW 05:52:06 16° NNW
STARLINK-69 4.0 05:51:32 23° WNW 05:53:50 51° N 05:57:54 10° ENE
Exosat Rocket 4.1 05:49:05 10° NNW 05:54:36 63° WSW 06:02:10 10° S
STARLINK-66 4.0 05:53:04 23° WNW 05:55:26 51° N 05:59:30 10° ENE
Cosmos 2322 4.3 05:52:28 17° NW 05:56:11 34° WSW 06:01:13 10° S
STARLINK-41 4.0 05:54:41 22° WNW 05:57:07 51° N 06:01:11 10° ENE
NOAA 6 4.0 05:52:24 10° NNE 05:57:34 85° WNW 06:02:40 10° SSW
Meteor 1-10 Rocket 4.4 05:52:14 10° N 05:57:54 80° ENE 06:03:38 10° SSE
CZ-4B R/B 3.2 05:52:41 10° NNE 05:58:09 86° WNW 06:03:42 10° SSW
STARLINK-64 4.0 05:56:17 21° WNW 05:58:47 50° N 06:02:51 10° ENE
Cosmos 1238 Rocket 3.9 05:54:07 10° SSW 06:00:11 51° WNW 06:05:27 10° N
STARLINK-70 4.0 05:57:51 20° WNW 06:00:26 50° N 06:04:29 10° ENE
STARLINK-68 4.0 05:59:36 20° WNW 06:02:15 50° N 06:06:18 10° ENE
Cosmos 2219 4.4 05:57:38 10° S 06:03:01 46° ESE 06:08:24 10° NE
H-2A R/B 4.4 06:00:46 10° NNW 06:02:38 14° NW 06:02:38 14° NW
Cosmos 1812 4.0 05:59:39 10° N 06:03:21 42° ENE 06:07:02 10° SSE
STARLINK-60 3.6 06:01:35 21° W 06:03:29 44° SSW 06:06:42 10° SE
STARLINK-58 4.0 06:01:05 19° WNW 06:03:49 50° N 06:07:52 10° ENE
Meteor 2-3 Rocket 4.0 05:59:23 10° SSW 06:04:59 50° WNW 06:10:39 10° N
STARLINK-62 4.0 06:02:46 18° WNW 06:05:34 49° N 06:09:37 10° ENE
Cosmos 1633 2.7 06:02:11 10° S 06:05:47 78° E 06:09:27 10° NNE
STARLINK-63 4.0 06:04:17 18° WNW 06:07:09 49° N 06:11:12 10° ENE
STARLINK 4.0 06:05:37 17° WNW 06:08:33 50° N 06:12:36 10° ENE
Cosmos 2333 Rocket 2.6 06:03:33 10° NW 06:08:59 44° WSW 06:14:26 10° S
SJ-7 4.3 06:05:57 10° NNE 06:10:07 81° WNW 06:14:12 10° SSW
Cosmos 2297 Rocket 4.0 06:05:15 10° S 06:10:20 36° ESE 06:15:27 10° NE
STARLINK-72 4.0 06:07:22 17° WNW 06:10:23 49° N 06:14:26 10° ENE
Cosmos 2227 Rocket 4.1 06:06:34 10° S 06:11:38 34° ESE 06:16:42 10° NE
CZ-2C R/B 4.3 06:08:09 10° SSE 06:12:39 59° ENE 06:17:16 10° N
CZ-4 R/B 4.4 06:11:15 10° NE 06:13:43 16° E 06:16:10 10° SE
STARLINK-59 4.0 06:10:40 16° WNW 06:13:50 49° N 06:17:52 10° ENE
Cosmos 1707 Rocket 3.6 06:09:46 10° NNW 06:14:13 65° W 06:18:38 10° S
RESURS DK-1 2.6 06:11:29 11° NW 06:15:23 53° WSW 06:19:25 10° S
STARLINK-57 4.0 06:12:16 15° WNW 06:15:30 49° N 06:19:33 10° ENE
Lacrosse 5 2.7 06:13:00 12° NW 06:17:20 41° NNE 06:22:08 10° E
Lacrosse 5 rocket 2.8 06:15:54 13° W 06:17:42 17° SW 06:20:06 10° S
Cosmos 2233 Rocket 4.3 06:11:59 10° SW 06:17:57 43° WNW 06:23:58 10° N
Cosmos 1484 Rocket 4.1 06:15:02 10° NNW 06:18:07 21° WNW 06:21:11 10° WSW
Okean O Rocket 1.8 06:14:16 10° N 06:18:27 47° WNW 06:22:37 10° SW
STARLINK-28 4.1 06:15:28 14° WNW 06:18:51 49° N 06:22:53 10° ENE
Cosmos 1805 Rocket 3.7 06:15:07 10° SSW 06:19:18 48° WNW 06:23:32 10° N
STARLINK-75 4.1 06:16:39 14° WNW 06:20:04 48° N 06:24:06 10° ENE
Starlink Launch 2 leader 4.4 06:18:29 10° SSW 06:20:40 28° SE 06:22:53 10° E
Cosmos 2228 Rocket 4.5 06:17:21 10° NW 06:20:41 20° W 06:24:00 10° SW
STARLINK-53 4.1 06:18:25 13° WNW 06:21:56 49° N 06:25:59 10° ENE
STARLINK-54 4.1 06:18:39 13° WNW 06:22:11 48° N 06:26:13 10° ENE
Cosmos 1315 Rocket 3.4 06:19:00 10° NNW 06:22:45 37° W 06:26:31 10° SSW
FALCON 9 DEB 4.3 06:21:19 10° SSW 06:23:30 29° SE 06:25:41 10° E
ADEOS Rocket 3.6 06:16:21 10° SSE 06:24:01 83° ENE 06:31:07 10° NNW
H-2A R/B 2.9 06:20:23 10° NNE 06:24:06 75° ESE 06:27:47 10° S
Starlink Launch 2 trailer 4.2 06:22:07 10° SSW 06:24:21 31° SE 06:26:36 10° E
STARLINK-37 4.1 06:22:07 12° WNW 06:25:47 48° N 06:29:50 10° ENE
FALCON 9 DEB 4.2 06:24:21 10° SSW 06:26:34 31° SE 06:28:48 10° E
STARLINK-55 4.1 06:23:18 12° WNW 06:27:02 48° N 06:31:05 10° ENE
STARLINK-34 4.1 06:25:04 11° WNW 06:28:52 48° N 06:32:55 10° ENE
STARLINK-43 3.4 06:25:35 12° WNW 06:29:05 79° NNE 06:32:48 10° ESE
Aureole 1 Rocket 3.4 06:25:41 10° NNW 06:29:25 64° ENE 06:34:15 10° SSE
STARLINK-81 4.1 06:26:27 11° WNW 06:30:21 48° N 06:34:23 10° ENE
Timation 2 Rocket 4.0 06:25:43 10° SW 06:31:34 53° NW 06:37:27 10° NNE
STARLINK-24 4.1 06:27:40 11° WNW 06:31:37 49° N 06:35:40 10° ENE
SL-16 R/B 3.0 06:26:34 10° NNW 06:32:09 51° NE 06:37:41 10° SE
Meteor 1-27 Rocket 3.9 06:26:28 10° NNW 06:32:22 88° W 06:38:19 10° S
STARLINK-80 3.6 06:29:11 11° WNW 06:32:55 64° NNE 06:36:44 10° E
STARLINK-77 4.1 06:29:39 10° WNW 06:33:40 48° N 06:37:43 10° ENE
CZ-2C R/B 4.2 06:32:55 10° NW 06:33:59 11° NW 06:35:03 10° WNW
STARLINK-25 4.1 06:31:17 10° WNW 06:35:21 49° N 06:39:24 10° ENE
Cosmos 1782 4.1 06:34:07 10° NW 06:37:09 21° W 06:40:10 10° SW
STARLINK-71 4.1 06:33:11 10° WNW 06:37:13 49° N 06:41:16 10° ENE
SOZ 4.3 06:35:23 10° WNW 06:38:20 43° N 06:40:21 10° ENE
STARLINK 1050 3.9 06:35:39 10° SW 06:38:23 43° SSE 06:41:10 10° ENE
STARLINK-79 4.1 06:34:39 10° WNW 06:38:41 49° N 06:42:43 10° ENE
STARLINK 1055 3.9 06:36:50 10° SW 06:39:35 44° SSE 06:42:20 10° ENE
USA 234 3.7 06:34:05 10° E 06:40:22 52° NNE 06:46:41 10° WNW
STARLINK-78 4.1 06:36:19 10° WNW 06:40:22 49° N 06:44:25 10° ENE
STARLINK 1022 3.8 06:38:00 10° SW 06:40:45 45° SSE 06:43:31 10° ENE
STARLINK 1042 3.8 06:38:52 10° SW 06:41:38 46° SSE 06:44:26 10° ENE
Sich 1 3.5 06:38:52 10° SW 06:42:52 38° WNW 06:46:54 10° N
Cosmos 1633 Rocket 3.1 06:38:38 10° SSW 06:42:57 62° WNW 06:47:19 10° N
STARLINK 1056 3.7 06:40:12 10° SW 06:42:58 47° SSE 06:45:45 10° ENE
STARLINK-52 4.2 06:40:09 10° WNW 06:43:24 35° SW 06:46:38 10° SSE
STARLINK-49 4.1 06:39:38 10° WNW 06:43:41 49° N 06:47:44 10° E
STARLINK 1054 3.7 06:41:28 10° SW 06:44:16 48° SSE 06:47:04 10° ENE
Cosmos 1818 3.7 06:39:53 10° SW 06:45:16 59° NW 06:50:41 10° NE
STARLINK-27 4.1 06:41:20 10° WNW 06:45:22 49° N 06:49:25 10° E
